Year,Month,Day,Hour,Minute,Value (Times are PST for temperature in C)
2013,01,22,00,00,3.90
2013,01,22,00,01,3.90
2013,01,22,00,02,3.80
2013,01,22,00,03,3.80
2013,01,22,00,04,3.80
2013,01,22,00,05,3.80
2013,01,22,00,06,3.80
2013,01,22,00,07,3.80
2013,01,22,00,08,3.70
2013,01,22,00,09,3.70
2013,01,22,00,10,3.70
2013,01,22,00,11,3.60
2013,01,22,00,12,3.50
2013,01,22,00,13,3.40
2013,01,22,00,14,3.30
2013,01,22,00,15,3.30
2013,01,22,00,16,3.30
2013,01,22,00,17,3.20
2013,01,22,00,18,3.20
2013,01,22,00,19,3.10
2013,01,22,00,20,3.10
2013,01,22,00,21,3.00
2013,01,22,00,22,3.00
2013,01,22,00,23,2.90
2013,01,22,00,24,2.90
2013,01,22,00,25,2.90
2013,01,22,00,26,2.90
2013,01,22,00,27,2.80
2013,01,22,00,28,2.80
2013,01,22,00,29,2.80
2013,01,22,00,30,2.80
2013,01,22,00,31,2.70
2013,01,22,00,32,2.70
2013,01,22,00,33,2.70
2013,01,22,00,34,2.70
2013,01,22,00,35,2.80
2013,01,22,00,36,2.80
2013,01,22,00,37,2.80
2013,01,22,00,38,2.90
2013,01,22,00,39,2.90
2013,01,22,00,40,2.90
2013,01,22,00,41,3.00
2013,01,22,00,42,3.00
2013,01,22,00,43,3.10
2013,01,22,00,44,3.10
2013,01,22,00,45,3.20
2013,01,22,00,46,3.20
2013,01,22,00,47,3.20
2013,01,22,00,48,3.30
2013,01,22,00,49,3.30
2013,01,22,00,50,3.30
2013,01,22,00,51,3.30
2013,01,22,00,52,3.30
2013,01,22,00,53,3.30
2013,01,22,00,54,3.40
2013,01,22,00,55,3.40
2013,01,22,00,56,3.40
2013,01,22,00,57,3.50
2013,01,22,00,58,3.50
2013,01,22,00,59,3.50
2013,01,22,01,00,3.50
2013,01,22,01,01,3.50
2013,01,22,01,02,3.50
2013,01,22,01,03,3.60
2013,01,22,01,04,3.50
2013,01,22,01,05,3.60
2013,01,22,01,06,3.60
2013,01,22,01,07,3.60
2013,01,22,01,08,3.60
2013,01,22,01,09,3.60
2013,01,22,01,10,3.60
2013,01,22,01,11,3.60
2013,01,22,01,12,3.60
2013,01,22,01,13,3.60
2013,01,22,01,14,3.60
2013,01,22,01,15,3.60
2013,01,22,01,16,3.60
2013,01,22,01,17,3.60
2013,01,22,01,18,3.60
2013,01,22,01,19,3.60
2013,01,22,01,20,3.70
2013,01,22,01,21,3.70
2013,01,22,01,22,3.70
2013,01,22,01,23,3.70
2013,01,22,01,24,3.70
2013,01,22,01,25,3.70
2013,01,22,01,26,3.70
2013,01,22,01,27,3.80
2013,01,22,01,28,3.80
2013,01,22,01,29,3.80
2013,01,22,01,30,3.80
2013,01,22,01,31,3.90
2013,01,22,01,32,3.90
2013,01,22,01,33,3.90
2013,01,22,01,34,3.90
2013,01,22,01,35,4.00
2013,01,22,01,36,4.00
2013,01,22,01,37,4.00
2013,01,22,01,38,4.00
2013,01,22,01,39,3.90
2013,01,22,01,40,3.90
2013,01,22,01,41,3.90
2013,01,22,01,42,3.90
2013,01,22,01,43,4.00
2013,01,22,01,44,4.00
2013,01,22,01,45,4.00
2013,01,22,01,46,4.10
2013,01,22,01,47,4.10
2013,01,22,01,48,4.10
2013,01,22,01,49,4.20
2013,01,22,01,50,4.20
2013,01,22,01,51,4.20
2013,01,22,01,52,4.20
2013,01,22,01,53,4.10
2013,01,22,01,54,4.00
2013,01,22,01,55,3.90
2013,01,22,01,56,3.80
2013,01,22,01,57,3.70
2013,01,22,01,58,3.50
2013,01,22,01,59,3.40
2013,01,22,02,00,3.30
2013,01,22,02,01,3.30
2013,01,22,02,02,3.30
2013,01,22,02,03,3.20
2013,01,22,02,04,3.20
2013,01,22,02,05,3.20
2013,01,22,02,06,3.20
2013,01,22,02,07,3.20
2013,01,22,02,08,3.20
2013,01,22,02,09,3.20
2013,01,22,02,10,3.20
2013,01,22,02,11,3.30
2013,01,22,02,12,3.40
2013,01,22,02,13,3.40
2013,01,22,02,14,3.50
2013,01,22,02,15,3.50
2013,01,22,02,16,3.60
2013,01,22,02,17,3.60
2013,01,22,02,18,3.70
2013,01,22,02,19,3.70
2013,01,22,02,20,3.70
2013,01,22,02,21,3.70
2013,01,22,02,22,3.80
2013,01,22,02,23,3.70
2013,01,22,02,24,3.80
2013,01,22,02,25,3.70
2013,01,22,02,26,3.70
2013,01,22,02,27,3.70
2013,01,22,02,28,3.70
2013,01,22,02,29,3.70
2013,01,22,02,30,3.80
2013,01,22,02,31,3.80
2013,01,22,02,32,3.80
2013,01,22,02,33,3.80
2013,01,22,02,34,3.80
2013,01,22,02,35,3.80
2013,01,22,02,36,3.80
2013,01,22,02,37,3.80
2013,01,22,02,38,3.80
2013,01,22,02,39,3.80
2013,01,22,02,40,3.80
2013,01,22,02,41,3.80
2013,01,22,02,42,3.80
2013,01,22,02,43,3.80
2013,01,22,02,44,3.80
2013,01,22,02,45,3.80
2013,01,22,02,46,3.70
2013,01,22,02,47,3.70
2013,01,22,02,48,3.70
2013,01,22,02,49,3.70
2013,01,22,02,50,3.70
2013,01,22,02,51,3.70
2013,01,22,02,52,3.70
2013,01,22,02,53,3.70
2013,01,22,02,54,3.60
2013,01,22,02,55,3.60
2013,01,22,02,56,3.60
2013,01,22,02,57,3.60
2013,01,22,02,58,3.60
2013,01,22,02,59,3.70
2013,01,22,03,00,3.70
2013,01,22,03,01,3.70
2013,01,22,03,02,3.70
2013,01,22,03,03,3.70
2013,01,22,03,04,3.70
2013,01,22,03,05,3.70
2013,01,22,03,06,3.70
2013,01,22,03,07,3.70
2013,01,22,03,08,3.70
2013,01,22,03,09,3.70
2013,01,22,03,10,3.70
2013,01,22,03,11,3.70
2013,01,22,03,12,3.70
2013,01,22,03,13,3.70
2013,01,22,03,14,3.70
2013,01,22,03,15,3.70
2013,01,22,03,16,3.80
2013,01,22,03,17,3.80
2013,01,22,03,18,3.80
2013,01,22,03,19,3.90
2013,01,22,03,20,3.90
2013,01,22,03,21,3.90
2013,01,22,03,22,4.00
2013,01,22,03,23,4.10
2013,01,22,03,24,4.10
2013,01,22,03,25,4.20
2013,01,22,03,26,4.20
2013,01,22,03,27,4.30
2013,01,22,03,28,4.40
2013,01,22,03,29,4.40
2013,01,22,03,30,4.40
2013,01,22,03,31,4.50
2013,01,22,03,32,4.50
2013,01,22,03,33,4.60
2013,01,22,03,34,4.60
2013,01,22,03,35,4.60
2013,01,22,03,36,4.70
2013,01,22,03,37,4.70
2013,01,22,03,38,4.70
2013,01,22,03,39,4.70
2013,01,22,03,40,4.70
2013,01,22,03,41,4.80
2013,01,22,03,42,4.90
2013,01,22,03,43,5.20
2013,01,22,03,44,5.40
2013,01,22,03,45,5.60
2013,01,22,03,46,5.80
2013,01,22,03,47,5.90
2013,01,22,03,48,6.00
2013,01,22,03,49,6.20
2013,01,22,03,50,6.30
2013,01,22,03,51,6.40
2013,01,22,03,52,6.50
2013,01,22,03,53,6.60
2013,01,22,03,54,6.60
2013,01,22,03,55,6.70
2013,01,22,03,56,6.80
2013,01,22,03,57,6.80
2013,01,22,03,58,6.70
2013,01,22,03,59,6.70
2013,01,22,04,00,6.70
2013,01,22,04,01,6.70
2013,01,22,04,02,6.70
2013,01,22,04,03,6.80
2013,01,22,04,04,6.80
2013,01,22,04,05,6.80
2013,01,22,04,06,6.80
2013,01,22,04,07,6.80
2013,01,22,04,08,6.70
2013,01,22,04,09,6.70
2013,01,22,04,10,6.70
2013,01,22,04,11,6.70
2013,01,22,04,12,6.70
2013,01,22,04,13,6.70
2013,01,22,04,14,6.60
2013,01,22,04,15,6.50
2013,01,22,04,16,6.50
2013,01,22,04,17,6.40
2013,01,22,04,18,6.40
2013,01,22,04,19,6.40
2013,01,22,04,20,6.30
2013,01,22,04,21,6.30
2013,01,22,04,22,6.30
2013,01,22,04,23,6.30
2013,01,22,04,24,6.30
2013,01,22,04,25,6.30
2013,01,22,04,26,6.30
2013,01,22,04,27,6.30
2013,01,22,04,28,6.30
2013,01,22,04,29,6.30
2013,01,22,04,30,6.30
2013,01,22,04,31,6.30
2013,01,22,04,32,6.30
2013,01,22,04,33,6.30
2013,01,22,04,34,6.30
2013,01,22,04,35,6.30
2013,01,22,04,36,6.40
2013,01,22,04,37,6.40
2013,01,22,04,38,6.50
2013,01,22,04,39,6.60
2013,01,22,04,40,6.60
2013,01,22,04,41,6.60
2013,01,22,04,42,6.60
2013,01,22,04,43,6.70
2013,01,22,04,44,6.70
2013,01,22,04,45,6.80
2013,01,22,04,46,6.80
2013,01,22,04,47,6.80
2013,01,22,04,48,6.80
2013,01,22,04,49,6.80
2013,01,22,04,50,6.80
2013,01,22,04,51,6.70
2013,01,22,04,52,6.60
2013,01,22,04,53,6.60
2013,01,22,04,54,6.50
2013,01,22,04,55,6.50
2013,01,22,04,56,6.40
2013,01,22,04,57,6.30
2013,01,22,04,58,6.30
2013,01,22,04,59,6.30
2013,01,22,05,00,6.20
2013,01,22,05,01,6.20
2013,01,22,05,02,6.10
2013,01,22,05,03,6.00
2013,01,22,05,04,6.00
2013,01,22,05,05,5.90
2013,01,22,05,06,5.80
2013,01,22,05,07,5.80
2013,01,22,05,08,5.80
2013,01,22,05,09,5.80
2013,01,22,05,10,5.80
2013,01,22,05,11,5.80
2013,01,22,05,12,5.80
2013,01,22,05,13,5.80
2013,01,22,05,14,5.80
2013,01,22,05,15,5.80
2013,01,22,05,16,5.80
2013,01,22,05,17,5.80
2013,01,22,05,18,5.80
2013,01,22,05,19,5.80
2013,01,22,05,20,5.80
2013,01,22,05,21,5.90
2013,01,22,05,22,5.90
2013,01,22,05,23,5.90
2013,01,22,05,24,6.00
2013,01,22,05,25,6.00
2013,01,22,05,26,6.00
2013,01,22,05,27,6.00
2013,01,22,05,28,6.00
2013,01,22,05,29,6.00
2013,01,22,05,30,5.90
2013,01,22,05,31,5.90
2013,01,22,05,32,5.90
2013,01,22,05,33,5.90
2013,01,22,05,34,5.80
2013,01,22,05,35,5.80
2013,01,22,05,36,5.80
2013,01,22,05,37,5.70
2013,01,22,05,38,5.70
2013,01,22,05,39,5.70
2013,01,22,05,40,5.60
2013,01,22,05,41,5.60
2013,01,22,05,42,5.60
2013,01,22,05,43,5.60
2013,01,22,05,44,5.60
2013,01,22,05,45,5.60
2013,01,22,05,46,5.60
2013,01,22,05,47,5.60
2013,01,22,05,48,5.60
2013,01,22,05,49,5.60
2013,01,22,05,50,5.60
2013,01,22,05,51,5.60
2013,01,22,05,52,5.50
2013,01,22,05,53,5.50
2013,01,22,05,54,5.50
2013,01,22,05,55,5.50
2013,01,22,05,56,5.40
2013,01,22,05,57,5.40
2013,01,22,05,58,5.40
2013,01,22,05,59,5.40
2013,01,22,06,00,5.40
2013,01,22,06,01,5.40
2013,01,22,06,02,5.30
2013,01,22,06,03,5.30
2013,01,22,06,04,5.30
2013,01,22,06,05,5.30
2013,01,22,06,06,5.30
2013,01,22,06,07,5.20
2013,01,22,06,08,5.20
2013,01,22,06,09,5.20
2013,01,22,06,10,5.20
2013,01,22,06,11,5.20
2013,01,22,06,12,5.20
2013,01,22,06,13,5.20
2013,01,22,06,14,5.20
2013,01,22,06,15,5.10
2013,01,22,06,16,5.20
2013,01,22,06,17,5.20
2013,01,22,06,18,5.20
2013,01,22,06,19,5.20
2013,01,22,06,20,5.20
2013,01,22,06,21,5.20
2013,01,22,06,22,5.30
2013,01,22,06,23,5.30
2013,01,22,06,24,5.30
2013,01,22,06,25,5.30
2013,01,22,06,26,5.30
2013,01,22,06,27,5.20
2013,01,22,06,28,5.30
2013,01,22,06,29,5.40
2013,01,22,06,30,5.50
2013,01,22,06,31,5.60
2013,01,22,06,32,5.70
2013,01,22,06,33,5.70
2013,01,22,06,34,5.70
2013,01,22,06,35,5.80
2013,01,22,06,36,5.80
2013,01,22,06,37,5.80
2013,01,22,06,38,5.70
2013,01,22,06,39,5.70
2013,01,22,06,40,5.70
2013,01,22,06,41,5.70
2013,01,22,06,42,5.70
2013,01,22,06,43,5.80
2013,01,22,06,44,5.80
2013,01,22,06,45,5.90
2013,01,22,06,46,6.00
2013,01,22,06,47,6.10
2013,01,22,06,48,6.20
2013,01,22,06,49,6.40
2013,01,22,06,50,6.50
2013,01,22,06,51,6.60
2013,01,22,06,52,6.70
2013,01,22,06,53,6.80
2013,01,22,06,54,6.80
2013,01,22,06,55,6.90
2013,01,22,06,56,7.00
2013,01,22,06,57,7.00
2013,01,22,06,58,7.00
2013,01,22,06,59,7.10
2013,01,22,07,00,7.20
2013,01,22,07,01,7.30
2013,01,22,07,02,7.30
2013,01,22,07,03,7.30
2013,01,22,07,04,7.30
2013,01,22,07,05,7.40
2013,01,22,07,06,7.40
2013,01,22,07,07,7.50
2013,01,22,07,08,7.50
2013,01,22,07,09,7.50
2013,01,22,07,10,7.60
2013,01,22,07,11,7.60
2013,01,22,07,12,7.60
2013,01,22,07,13,7.70
2013,01,22,07,14,7.70
2013,01,22,07,15,7.70
2013,01,22,07,16,7.70
2013,01,22,07,17,7.70
2013,01,22,07,18,7.70
2013,01,22,07,19,7.70
2013,01,22,07,20,7.80
2013,01,22,07,21,7.80
2013,01,22,07,22,7.80
2013,01,22,07,23,7.80
2013,01,22,07,24,7.80
2013,01,22,07,25,7.80
2013,01,22,07,26,7.80
2013,01,22,07,27,7.80
2013,01,22,07,28,7.80
2013,01,22,07,29,7.80
2013,01,22,07,30,7.80
2013,01,22,07,31,7.90
2013,01,22,07,32,8.00
2013,01,22,07,33,8.00
2013,01,22,07,34,8.10
2013,01,22,07,35,8.20
2013,01,22,07,36,8.30
2013,01,22,07,37,8.40
2013,01,22,07,38,8.50
2013,01,22,07,39,8.50
2013,01,22,07,40,8.60
2013,01,22,07,41,8.60
2013,01,22,07,42,8.70
2013,01,22,07,43,8.70
2013,01,22,07,44,8.70
2013,01,22,07,45,8.70
2013,01,22,07,46,8.70
2013,01,22,07,47,8.70
2013,01,22,07,48,8.70
2013,01,22,07,49,8.70
2013,01,22,07,50,8.70
2013,01,22,07,51,8.70
2013,01,22,07,52,8.80
2013,01,22,07,53,8.80
2013,01,22,07,54,8.70
2013,01,22,07,55,8.70
2013,01,22,07,56,8.70
2013,01,22,07,57,8.70
2013,01,22,07,58,8.70
2013,01,22,07,59,8.70
2013,01,22,08,00,8.70
2013,01,22,08,01,8.60
2013,01,22,08,02,8.60
2013,01,22,08,03,8.60
2013,01,22,08,04,8.60
2013,01,22,08,05,8.60
2013,01,22,08,06,8.60
2013,01,22,08,07,8.70
2013,01,22,08,08,8.70
2013,01,22,08,09,8.70
2013,01,22,08,10,8.70
2013,01,22,08,11,8.70
2013,01,22,08,12,8.60
2013,01,22,08,13,8.60
2013,01,22,08,14,8.50
2013,01,22,08,15,8.50
2013,01,22,08,16,8.40
2013,01,22,08,17,8.30
2013,01,22,08,18,8.10
2013,01,22,08,19,8.00
2013,01,22,08,20,8.00
2013,01,22,08,21,8.00
2013,01,22,08,22,8.00
2013,01,22,08,23,8.00
2013,01,22,08,24,8.00
2013,01,22,08,25,8.00
2013,01,22,08,26,8.00
2013,01,22,08,27,8.00
2013,01,22,08,28,8.00
2013,01,22,08,29,8.00
2013,01,22,08,30,8.00
2013,01,22,08,31,8.00
2013,01,22,08,32,8.00
2013,01,22,08,33,8.10
2013,01,22,08,34,8.10
2013,01,22,08,35,8.20
2013,01,22,08,36,8.20
2013,01,22,08,37,8.20
2013,01,22,08,38,8.30
2013,01,22,08,39,8.30
2013,01,22,08,40,8.30
2013,01,22,08,41,8.40
2013,01,22,08,42,8.40
2013,01,22,08,43,8.50
2013,01,22,08,44,8.60
2013,01,22,08,45,8.70
2013,01,22,08,46,8.70
2013,01,22,08,47,8.70
2013,01,22,08,48,8.80
2013,01,22,08,49,8.80
2013,01,22,08,50,8.90
2013,01,22,08,51,8.90
2013,01,22,08,52,8.90
2013,01,22,08,53,9.00
2013,01,22,08,54,9.00
2013,01,22,08,55,9.10
2013,01,22,08,56,9.20
2013,01,22,08,57,9.20
2013,01,22,08,58,9.30
2013,01,22,08,59,9.30
2013,01,22,09,00,9.30
2013,01,22,09,01,9.30
2013,01,22,09,02,9.30
2013,01,22,09,03,9.30
2013,01,22,09,04,9.30
2013,01,22,09,05,9.30
2013,01,22,09,06,9.40
2013,01,22,09,07,9.40
2013,01,22,09,08,9.30
2013,01,22,09,09,9.30
2013,01,22,09,10,9.30
2013,01,22,09,11,9.30
2013,01,22,09,12,9.40
2013,01,22,09,13,9.40
2013,01,22,09,14,9.40
2013,01,22,09,15,9.40
2013,01,22,09,16,9.40
2013,01,22,09,17,9.40
2013,01,22,09,18,9.40
2013,01,22,09,19,9.40
2013,01,22,09,20,9.50
2013,01,22,09,21,9.50
2013,01,22,09,22,9.50
2013,01,22,09,23,9.60
2013,01,22,09,24,9.60
2013,01,22,09,25,9.60
2013,01,22,09,26,9.50
2013,01,22,09,27,9.50
2013,01,22,09,28,9.50
2013,01,22,09,29,9.50
2013,01,22,09,30,9.60
2013,01,22,09,31,9.60
2013,01,22,09,32,9.60
2013,01,22,09,33,9.60
2013,01,22,09,34,9.60
2013,01,22,09,35,9.60
2013,01,22,09,36,9.60
2013,01,22,09,37,9.60
2013,01,22,09,38,9.60
2013,01,22,09,39,9.60
2013,01,22,09,40,9.60
2013,01,22,09,41,9.60
2013,01,22,09,42,9.70
2013,01,22,09,43,9.70
2013,01,22,09,44,9.70
2013,01,22,09,45,9.80
2013,01,22,09,46,9.80
2013,01,22,09,47,9.80
2013,01,22,09,48,9.80
2013,01,22,09,49,9.90
2013,01,22,09,50,9.90
2013,01,22,09,51,9.90
2013,01,22,09,52,9.90
2013,01,22,09,53,9.90
2013,01,22,09,54,9.90
2013,01,22,09,55,9.90
2013,01,22,09,56,9.90
2013,01,22,09,57,9.90
2013,01,22,09,58,9.80
2013,01,22,09,59,9.80
2013,01,22,10,00,9.80
2013,01,22,10,01,9.80
2013,01,22,10,02,9.90
2013,01,22,10,03,9.90
2013,01,22,10,04,10.00
2013,01,22,10,05,10.00
2013,01,22,10,06,10.10
2013,01,22,10,07,10.10
2013,01,22,10,08,10.20
2013,01,22,10,09,10.20
2013,01,22,10,10,10.20
2013,01,22,10,11,10.20
2013,01,22,10,12,10.30
2013,01,22,10,13,10.30
2013,01,22,10,14,10.30
2013,01,22,10,15,10.40
2013,01,22,10,16,10.40
2013,01,22,10,17,10.40
2013,01,22,10,18,10.40
2013,01,22,10,19,10.40
2013,01,22,10,20,10.40
2013,01,22,10,21,10.30
2013,01,22,10,22,10.30
2013,01,22,10,23,10.20
2013,01,22,10,24,10.20
2013,01,22,10,25,10.10
2013,01,22,10,26,10.00
2013,01,22,10,27,9.90
2013,01,22,10,28,9.90
2013,01,22,10,29,9.80
2013,01,22,10,30,9.80
2013,01,22,10,31,9.70
2013,01,22,10,32,9.70
2013,01,22,10,33,9.70
2013,01,22,10,34,9.70
2013,01,22,10,35,9.70
2013,01,22,10,36,9.70
2013,01,22,10,37,9.60
2013,01,22,10,38,9.60
2013,01,22,10,39,9.60
2013,01,22,10,40,9.50
2013,01,22,10,41,9.50
2013,01,22,10,42,9.50
2013,01,22,10,43,9.50
2013,01,22,10,44,9.50
2013,01,22,10,45,9.50
2013,01,22,10,46,9.50
2013,01,22,10,47,9.50
2013,01,22,10,48,9.50
2013,01,22,10,49,9.60
2013,01,22,10,50,9.60
2013,01,22,10,51,9.60
2013,01,22,10,52,9.60
2013,01,22,10,53,9.70
2013,01,22,10,54,9.70
2013,01,22,10,55,9.70
2013,01,22,10,56,9.70
2013,01,22,10,57,9.70
2013,01,22,10,58,9.70
2013,01,22,10,59,9.70
2013,01,22,11,00,9.70
2013,01,22,11,01,9.80
2013,01,22,11,02,9.80
2013,01,22,11,03,9.80
2013,01,22,11,04,9.80
2013,01,22,11,05,9.80
2013,01,22,11,06,9.80
2013,01,22,11,07,9.90
2013,01,22,11,08,9.90
2013,01,22,11,09,9.90
2013,01,22,11,10,9.90
2013,01,22,11,11,9.90
2013,01,22,11,12,10.00
2013,01,22,11,13,10.00
2013,01,22,11,14,10.10
2013,01,22,11,15,10.10
2013,01,22,11,16,10.10
2013,01,22,11,17,10.20
2013,01,22,11,18,10.30
2013,01,22,11,19,10.30
2013,01,22,11,20,10.30
2013,01,22,11,21,10.30
2013,01,22,11,22,10.30
2013,01,22,11,23,10.30
2013,01,22,11,24,10.30
2013,01,22,11,25,10.40
2013,01,22,11,26,10.40
2013,01,22,11,27,10.40
2013,01,22,11,28,10.40
2013,01,22,11,29,10.40
2013,01,22,11,30,10.50
2013,01,22,11,31,10.50
2013,01,22,11,32,10.50
2013,01,22,11,33,10.50
2013,01,22,11,34,10.60
2013,01,22,11,35,10.60
2013,01,22,11,36,10.60
2013,01,22,11,37,10.70
2013,01,22,11,38,10.70
2013,01,22,11,39,10.70
2013,01,22,11,40,10.80
2013,01,22,11,41,10.80
2013,01,22,11,42,10.80
2013,01,22,11,43,10.80
2013,01,22,11,44,10.80
2013,01,22,11,45,10.90
2013,01,22,11,46,10.90
2013,01,22,11,47,11.00
2013,01,22,11,48,11.00
2013,01,22,11,49,11.00
2013,01,22,11,50,10.90
2013,01,22,11,51,10.90
2013,01,22,11,52,10.90
2013,01,22,11,53,10.90
2013,01,22,11,54,11.00
2013,01,22,11,55,11.00
2013,01,22,11,56,11.00
2013,01,22,11,57,11.10
2013,01,22,11,58,11.10
2013,01,22,11,59,11.10
2013,01,22,12,00,11.10
2013,01,22,12,01,11.10
2013,01,22,12,02,11.10
2013,01,22,12,03,11.10
2013,01,22,12,04,11.10
2013,01,22,12,05,11.10
2013,01,22,12,06,11.10
2013,01,22,12,07,11.10
2013,01,22,12,08,11.10
2013,01,22,12,09,11.10
2013,01,22,12,10,11.10
2013,01,22,12,11,11.10
2013,01,22,12,12,11.00
2013,01,22,12,13,11.00
2013,01,22,12,14,11.00
2013,01,22,12,15,11.00
2013,01,22,12,16,11.10
2013,01,22,12,17,11.10
2013,01,22,12,18,11.10
2013,01,22,12,19,11.10
2013,01,22,12,20,11.00
2013,01,22,12,21,11.00
2013,01,22,12,22,11.00
2013,01,22,12,23,10.90
2013,01,22,12,24,10.90
2013,01,22,12,25,10.90
2013,01,22,12,26,10.90
2013,01,22,12,27,10.90
2013,01,22,12,28,10.90
2013,01,22,12,29,10.90
2013,01,22,12,30,10.90
2013,01,22,12,31,10.90
2013,01,22,12,32,10.90
2013,01,22,12,33,10.90
2013,01,22,12,34,10.90
2013,01,22,12,35,10.90
2013,01,22,12,36,10.80
2013,01,22,12,37,10.80
2013,01,22,12,38,10.80
2013,01,22,12,39,10.80
2013,01,22,12,40,10.80
2013,01,22,12,41,10.70
2013,01,22,12,42,10.70
2013,01,22,12,43,10.70
2013,01,22,12,44,10.70
2013,01,22,12,45,10.60
2013,01,22,12,46,10.60
2013,01,22,12,47,10.60
2013,01,22,12,48,10.60
2013,01,22,12,49,10.60
2013,01,22,12,50,10.60
2013,01,22,12,51,10.60
2013,01,22,12,52,10.60
2013,01,22,12,53,10.50
2013,01,22,12,54,10.50
2013,01,22,12,55,10.50
2013,01,22,12,56,10.40
2013,01,22,12,57,10.40
2013,01,22,12,58,10.40
2013,01,22,12,59,10.40
2013,01,22,13,00,10.40
2013,01,22,13,01,10.50
2013,01,22,13,02,10.50
2013,01,22,13,03,10.50
2013,01,22,13,04,10.50
2013,01,22,13,05,10.60
2013,01,22,13,06,10.60
2013,01,22,13,07,10.60
2013,01,22,13,08,10.60
2013,01,22,13,09,10.60
2013,01,22,13,10,10.60
2013,01,22,13,11,10.60
2013,01,22,13,12,10.60
2013,01,22,13,13,10.50
2013,01,22,13,14,10.50
2013,01,22,13,15,10.40
2013,01,22,13,16,10.40
2013,01,22,13,17,10.40
2013,01,22,13,18,10.30
2013,01,22,13,19,10.30
2013,01,22,13,20,10.30
2013,01,22,13,21,10.30
2013,01,22,13,22,10.20
2013,01,22,13,23,10.20
2013,01,22,13,24,10.20
2013,01,22,13,25,10.20
2013,01,22,13,26,10.20
2013,01,22,13,27,10.20
2013,01,22,13,28,10.20
2013,01,22,13,29,10.20
2013,01,22,13,30,10.20
2013,01,22,13,31,10.20
2013,01,22,13,32,10.30
2013,01,22,13,33,10.30
2013,01,22,13,34,10.40
2013,01,22,13,35,10.50
2013,01,22,13,36,10.50
2013,01,22,13,37,10.60
2013,01,22,13,38,10.70
2013,01,22,13,39,10.70
2013,01,22,13,40,10.70
2013,01,22,13,41,10.80
2013,01,22,13,42,10.80
2013,01,22,13,43,10.80
2013,01,22,13,44,10.80
2013,01,22,13,45,10.80
2013,01,22,13,46,10.90
2013,01,22,13,47,10.90
2013,01,22,13,48,10.90
2013,01,22,13,49,10.90
2013,01,22,13,50,10.90
2013,01,22,13,51,10.90
2013,01,22,13,52,10.90
2013,01,22,13,53,11.00
2013,01,22,13,54,11.00
2013,01,22,13,55,11.10
2013,01,22,13,56,11.20
2013,01,22,13,57,11.30
2013,01,22,13,58,11.30
2013,01,22,13,59,11.30
2013,01,22,14,00,11.30
2013,01,22,14,01,11.30
2013,01,22,14,02,11.30
2013,01,22,14,03,11.30
2013,01,22,14,04,11.30
2013,01,22,14,05,11.30
2013,01,22,14,06,11.30
2013,01,22,14,07,11.30
2013,01,22,14,08,11.40
2013,01,22,14,09,11.40
2013,01,22,14,10,11.40
2013,01,22,14,11,11.40
2013,01,22,14,12,11.30
2013,01,22,14,13,11.30
2013,01,22,14,14,11.30
2013,01,22,14,15,11.30
2013,01,22,14,16,11.30
2013,01,22,14,17,11.30
2013,01,22,14,18,11.30
2013,01,22,14,19,11.30
2013,01,22,14,20,11.30
2013,01,22,14,21,11.30
2013,01,22,14,22,11.40
2013,01,22,14,23,11.40
2013,01,22,14,24,11.40
2013,01,22,14,25,11.40
2013,01,22,14,26,11.50
2013,01,22,14,27,11.50
2013,01,22,14,28,11.60
2013,01,22,14,29,11.60
2013,01,22,14,30,11.60
2013,01,22,14,31,11.70
2013,01,22,14,32,11.70
2013,01,22,14,33,11.80
2013,01,22,14,34,11.80
2013,01,22,14,35,11.80
2013,01,22,14,36,11.80
2013,01,22,14,37,11.80
2013,01,22,14,38,11.80
2013,01,22,14,39,11.80
2013,01,22,14,40,11.80
2013,01,22,14,41,11.80
2013,01,22,14,42,11.80
2013,01,22,14,43,11.80
2013,01,22,14,44,11.80
2013,01,22,14,45,11.80
2013,01,22,14,46,11.80
2013,01,22,14,47,11.80
2013,01,22,14,48,11.80
2013,01,22,14,49,11.80
2013,01,22,14,50,11.90
2013,01,22,14,51,11.90
2013,01,22,14,52,11.90
2013,01,22,14,53,12.00
2013,01,22,14,54,12.10
2013,01,22,14,55,12.10
2013,01,22,14,56,12.20
2013,01,22,14,57,12.30
2013,01,22,14,58,12.30
2013,01,22,14,59,12.30
2013,01,22,15,00,12.40
2013,01,22,15,01,12.40
2013,01,22,15,02,12.40
2013,01,22,15,03,12.40
2013,01,22,15,04,12.40
2013,01,22,15,05,12.40
2013,01,22,15,06,12.40
2013,01,22,15,07,12.40
2013,01,22,15,08,12.50
2013,01,22,15,09,12.50
2013,01,22,15,10,12.50
2013,01,22,15,11,12.40
2013,01,22,15,12,12.40
2013,01,22,15,13,12.40
2013,01,22,15,14,12.40
2013,01,22,15,15,12.40
2013,01,22,15,16,12.30
2013,01,22,15,17,12.30
2013,01,22,15,18,12.30
2013,01,22,15,19,12.20
2013,01,22,15,20,12.20
2013,01,22,15,21,12.20
2013,01,22,15,22,12.20
2013,01,22,15,23,12.20
2013,01,22,15,24,12.20
2013,01,22,15,25,12.20
2013,01,22,15,26,12.10
2013,01,22,15,27,12.10
2013,01,22,15,28,12.10
2013,01,22,15,29,12.10
2013,01,22,15,30,12.10
2013,01,22,15,31,12.00
2013,01,22,15,32,12.10
2013,01,22,15,33,12.10
2013,01,22,15,34,12.10
2013,01,22,15,35,12.10
2013,01,22,15,36,12.10
2013,01,22,15,37,12.10
2013,01,22,15,38,12.10
2013,01,22,15,39,12.10
2013,01,22,15,40,12.10
2013,01,22,15,41,12.10
2013,01,22,15,42,12.20
2013,01,22,15,43,12.10
2013,01,22,15,44,12.10
2013,01,22,15,45,12.10
2013,01,22,15,46,12.10
2013,01,22,15,47,12.10
2013,01,22,15,48,12.10
2013,01,22,15,49,12.00
2013,01,22,15,50,12.00
2013,01,22,15,51,11.90
2013,01,22,15,52,11.90
2013,01,22,15,53,11.90
2013,01,22,15,54,11.80
2013,01,22,15,55,11.80
2013,01,22,15,56,11.80
2013,01,22,15,57,11.80
2013,01,22,15,58,11.70
2013,01,22,15,59,11.70
2013,01,22,16,00,11.60
2013,01,22,16,01,11.60
2013,01,22,16,02,11.60
2013,01,22,16,03,11.50
2013,01,22,16,04,11.50
2013,01,22,16,05,11.50
2013,01,22,16,06,11.40
2013,01,22,16,07,11.40
2013,01,22,16,08,11.40
2013,01,22,16,09,11.40
2013,01,22,16,10,11.40
2013,01,22,16,11,11.40
2013,01,22,16,12,11.30
2013,01,22,16,13,11.30
2013,01,22,16,14,11.30
2013,01,22,16,15,11.30
2013,01,22,16,16,11.30
2013,01,22,16,17,11.30
2013,01,22,16,18,11.20
2013,01,22,16,19,11.20
2013,01,22,16,20,11.20
2013,01,22,16,21,11.10
2013,01,22,16,22,11.10
2013,01,22,16,23,11.10
2013,01,22,16,24,11.00
2013,01,22,16,25,11.00
2013,01,22,16,26,10.90
2013,01,22,16,27,10.90
2013,01,22,16,28,10.90
2013,01,22,16,29,10.90
2013,01,22,16,30,10.90
2013,01,22,16,31,10.90
2013,01,22,16,32,10.90
2013,01,22,16,33,11.00
2013,01,22,16,34,11.00
2013,01,22,16,35,11.00
2013,01,22,16,36,11.00
2013,01,22,16,37,11.10
2013,01,22,16,38,11.10
2013,01,22,16,39,11.10
2013,01,22,16,40,11.10
2013,01,22,16,41,11.10
2013,01,22,16,42,11.10
2013,01,22,16,43,11.10
2013,01,22,16,44,11.20
2013,01,22,16,45,11.10
2013,01,22,16,46,11.10
2013,01,22,16,47,11.10
2013,01,22,16,48,11.10
2013,01,22,16,49,11.10
2013,01,22,16,50,11.00
2013,01,22,16,51,11.00
2013,01,22,16,52,11.00
2013,01,22,16,53,10.90
2013,01,22,16,54,10.90
2013,01,22,16,55,10.90
2013,01,22,16,56,10.90
2013,01,22,16,57,10.90
2013,01,22,16,58,10.90
2013,01,22,16,59,10.90
2013,01,22,17,00,10.90
2013,01,22,17,01,10.90
2013,01,22,17,02,10.90
2013,01,22,17,03,10.90
2013,01,22,17,04,11.00
2013,01,22,17,05,11.00
2013,01,22,17,06,11.00
2013,01,22,17,07,11.10
2013,01,22,17,08,11.10
2013,01,22,17,09,11.10
2013,01,22,17,10,11.10
2013,01,22,17,11,11.10
2013,01,22,17,12,11.10
2013,01,22,17,13,11.10
2013,01,22,17,14,11.10
2013,01,22,17,15,11.10
2013,01,22,17,16,11.10
2013,01,22,17,17,11.20
2013,01,22,17,18,11.20
2013,01,22,17,19,11.20
2013,01,22,17,20,11.30
2013,01,22,17,21,11.30
2013,01,22,17,22,11.30
2013,01,22,17,23,11.30
2013,01,22,17,24,11.30
2013,01,22,17,25,11.30
2013,01,22,17,26,11.30
2013,01,22,17,27,11.40
2013,01,22,17,28,11.40
2013,01,22,17,29,11.40
2013,01,22,17,30,11.40
2013,01,22,17,31,11.40
2013,01,22,17,32,11.50
2013,01,22,17,33,11.40
2013,01,22,17,34,11.40
2013,01,22,17,35,11.40
2013,01,22,17,36,11.40
2013,01,22,17,37,11.40
2013,01,22,17,38,11.40
2013,01,22,17,39,11.40
2013,01,22,17,40,11.50
2013,01,22,17,41,11.50
2013,01,22,17,42,11.50
2013,01,22,17,43,11.50
2013,01,22,17,44,11.50
2013,01,22,17,45,11.50
2013,01,22,17,46,11.50
2013,01,22,17,47,11.50